IZ2MHJ-3 Weather Reports


time (UTC)temp
C
wind
direction
speed
KPH
gust
KPH
rain 1hr
cm
rain 24hr
cm
rain mn
cm
humidity
%
barometer
mb
20260902183904 28 0.0 0.0 0.00 0.00 0.00 53 1017.8
20260902181904 28 0.0 0.0 0.00 0.00 0.00 52 1017.5
20260902175903 28 0.0 0.0 0.00 0.00 0.00 52 1017.5
20260902173903 29 0.0 0.0 0.00 0.00 0.00 50 1017.3
20260902171903 30 0.0 0.0 0.00 0.00 0.00 48 1017.2
20260902165902 31 0.0 0.0 0.00 0.00 0.00 48 1017.2
20260902163902 32 0.0 0.0 0.00 0.00 0.00 43 1017.0
20260902161902 34 0.0 0.0 0.00 0.00 0.00 41 1017.0
20260902155901 33 0.0 0.0 0.00 0.00 0.00 41 1017.1
20260902153901 34 0.0 0.0 0.00 0.00 0.00 40 1017.2
20260902151902 34 0.0 0.0 0.00 0.00 0.00 41 1017.2
20260902145901 35 0.0 0.0 0.00 0.00 0.00 38 1017.4
20260902143901 35 0.0 0.0 0.00 0.00 0.00 39 1017.5
20260902141901 36 0.0 0.0 0.00 0.00 0.00 38 1017.5
20260902135900 35 0.0 0.0 0.00 0.00 0.00 38 1017.8
20260902133859 36 0.0 0.0 0.00 0.00 0.00 37 1018.1
20260902131859 36 0.0 0.0 0.00 0.00 0.00 39 1018.3
20260902125859 36 0.0 0.0 0.00 0.00 0.00 39 1018.4
20260902123859 36 0.0 0.0 0.00 0.00 0.00 39 1018.7
20260902121858 35 0.0 0.0 0.00 0.00 0.00 40 1018.9
20260902115858 33 0.0 0.0 0.00 0.00 0.00 43 1019.2
20260902113858 35 0.0 0.0 0.00 0.00 0.00 40 1019.2
20260902111858 33 0.0 0.0 0.00 0.00 0.00 41 1019.4
20260902105857 31 0.0 0.0 0.00 0.00 0.00 44 1019.9
20260902103857 32 0.0 0.0 0.00 0.00 0.00 44 1020.1
20260902101856 33 0.0 0.0 0.00 0.00 0.00 39 1020.1
20260902095856 32 0.0 0.0 0.00 0.00 0.00 41 1020.5
20260902093856 30 0.0 0.0 0.00 0.00 0.00 47 1020.7
20260902091856 31 0.0 0.0 0.00 0.00 0.00 44 1020.5
20260902085856 31 0.0 0.0 0.00 0.00 0.00 43 1020.6
20260902083855 33 0.0 0.0 0.00 0.00 0.00 40 1020.6
20260902081855 31 0.0 0.0 0.00 0.00 0.00 44 1020.5
20260902075854 31 0.0 0.0 0.00 0.00 0.00 43 1020.4
20260902073853 31 0.0 0.0 0.00 0.00 0.00 45 1020.4
20260902071853 30 0.0 0.0 0.00 0.00 0.00 50 1020.4
20260902065853 28 0.0 0.0 0.00 0.00 0.00 53 1020.4
20260902063853 26 0.0 0.0 0.00 0.00 0.00 61 1020.6
20260902061852 25 0.0 0.0 0.00 0.00 0.00 63 1020.7
20260902055852 24 0.0 0.0 0.00 0.00 0.00 67 1020.6
20260902053852 23 0.0 0.0 0.00 0.00 0.00 68 1020.5
20260902051851 23 0.0 0.0 0.00 0.00 0.00 70 1020.6
20260902045851 22 0.0 0.0 0.00 0.00 0.00 73 1020.4
20260902043852 22 0.0 0.0 0.00 0.00 0.00 74 1020.3
20260902041851 22 0.0 0.0 0.00 0.00 0.00 72 1020.2
20260902035850 22 0.0 0.0 0.00 0.00 0.00 74 1020.2
20260902033850 22 0.0 0.0 0.00 0.00 0.00 74 1020.2
20260902031849 22 0.0 0.0 0.00 0.00 0.00 73 1020.1
20260902025849 22 0.0 0.0 0.00 0.00 0.00 73 1020.2
20260902023849 22 0.0 0.0 0.00 0.00 0.00 73 1020.1
20260902021849 23 0.0 0.0 0.00 0.00 0.00 71 1020.0
20260902015849 22 0.0 0.0 0.00 0.00 0.00 72 1020.0
20260902013848 23 0.0 0.0 0.00 0.00 0.00 71 1019.9
20260902011848 23 0.0 0.0 0.00 0.00 0.00 71 1020.0
20260902005847 23 0.0 0.0 0.00 0.00 0.00 71 1019.9
20260902003847 23 0.0 0.0 0.00 0.00 0.00 71 1020.0
20260902001847 23 0.0 0.0 0.00 0.00 0.00 70 1019.9
20260901235847 24 0.0 0.0 0.00 0.00 0.00 70 1019.9
20260901233846 24 0.0 0.0 0.00 0.00 0.00 68 1019.9
20260901231846 23 0.0 0.0 0.00 0.00 0.00 70 1019.9
20260901225845 25 0.0 0.0 0.00 0.00 0.00 68 1019.9
20260901223845 25 0.0 0.0 0.00 0.00 0.00 67 1019.8
20260901221845 25 0.0 0.0 0.00 0.00 0.00 67 1019.8
20260901215845 25 0.0 0.0 0.00 0.00 0.00 67 1019.8
20260901213844 25 0.0 0.0 0.00 0.00 0.00 65 1019.7
20260901211844 26 0.0 0.0 0.00 0.00 0.00 63 1019.6
20260901205948 26 0.0 0.0 0.00 0.00 0.00 64 1019.7
20260901203947 26 0.0 0.0 0.00 0.00 0.00 62 1019.6
20260901201947 27 0.0 0.0 0.00 0.00 0.00 60 1019.4
20260901195947 27 0.0 0.0 0.00 0.00 0.00 59 1019.2
20260901193946 27 0.0 0.0 0.00 0.00 0.00 61 1019.1
20260901191946 28 0.0 0.0 0.00 0.00 0.00 59 1018.9
20260901185946 28 0.0 0.0 0.00 0.00 0.00 58 1018.6